Regional Weather Roundup
Issued by NWS

Home | Current Version | Previous Version | Graphics & Text | Print | Product List | Glossary On
Versions: 1 2 3 4 5 6 7 8 9 10 11 12 13 14 15 16 17 18 19 20 21 22 23 24 25 26 27 28 29 30 31 32 33 34 35 36 37 38 39 40 41 42 43 44 45 46 47 48 49 50
000
ASUS43 KIND 032309
RWRIN

WEATHER ROUNDUP FOR INDIANA
NATIONAL WEATHER SERVICE INDIANAPOLIS IN
700 PM EDT TUE MAY 03 2016

NOTE: "FAIR" INDICATES FEW OR NO CLOUDS BELOW 12,000 FEET WITH NO
SIGNIFICANT WEATHER AND/OR OBSTRUCTIONS TO VISIBILITY.

* - STATION DOES NOT REPORT WEATHER SUCH AS PRECIPITATION OR FOG.

+ - STATION NOT QUALITY CONTROLLED BY THE NATIONAL WEATHER SERVICE.
    USE DATA WITH CAUTION...ESPECIALLY DEWPOINT AND RELATIVE
    HUMIDITY OBSERVATIONS.

INZ001>003-010>013-019-020-040000-
NORTHWEST INDIANA

CITY           SKY/WX    TMP DP  RH WIND       PRES   REMARKS
GARY /AIRPORT/ PTSUNNY   66  46  48 W14       29.82F
KNOX *+        CLOUDY    63  25  23 W9        29.82F
LA PORTE +     CLOUDY    64  39  40 SW3       29.82F
MICHIGAN CITY+ CLOUDY    61  41  48 SW6       29.82F
MONTICELLO +   PTSUNNY   63  32  30 W6        29.84S
RENSSELAER +   CLOUDY    63  37  39 W3        29.84F
VALPARAISO     CLOUDY    63  38  39 SW12      29.82F

$$

LMZ046-743>745-040000-
SOUTHERN LAKE MICHIGAN

STATION/POSITION TIME  TEMP    WIND        PRES    WAVE
                       AIR SEA DIR/SP/G            HT
                 (UTC) (F)     (DEG/KT/KT) (MB)    (FT)
BURNS HARBOR     2200   64     250/  5/  7 1010.5F
MICHIGAN CITY    2200   61     170/  1/  1   N/A

$$

INZ004-005-014>016-021>024-040000-
NORTH CENTRAL INDIANA

CITY           SKY/WX    TMP DP  RH WIND       PRES   REMARKS
ELKHART        MOSUNNY   64  41  42 W10G16    29.82F
GOSHEN         MOSUNNY   60  40  47 W8        29.81F
LOGANSPORT +   MOSUNNY   61  41  48 SW6       29.85F
PERU/GRISSOM   SUNNY     61  41  48 SW5       29.83F
ROCHESTER +    MOSUNNY   63  37  39 CALM      29.83F
SOUTH BEND     PTSUNNY   63  36  36 NW9       29.82F
WARSAW +       MOSUNNY   63  37  39 W6        29.83F

$$

INZ006>009-017-018-025>027-040000-
NORTHEAST INDIANA

CITY           SKY/WX    TMP DP  RH WIND       PRES   REMARKS
ANGOLA *+      MOSUNNY   63  39  42 SW5       29.81F
AUBURN +       MOSUNNY   61  37  41 SW3       29.83F
FORT WAYNE     MOSUNNY   60  44  55 W8        29.84F
HUNTINGTON +   PTSUNNY   61  39  44 SW6       29.84F

$$

INZ028-029-035-036-043>045-051>053-040000-
WEST CENTRAL INDIANA

CITY           SKY/WX    TMP DP  RH WIND       PRES   REMARKS
CRAWFORDSVL +  PTSUNNY   60  41  49 W7        29.86F
GREENCASTLE +  SUNNY     61  41  48 CALM      29.88F
LAFAYETTE      PTSUNNY   60  41  49 W5        29.85S
TERRE HAUTE    PTSUNNY   63  39  41 W6        29.88F

$$

INZ030>032-037>040-046>048-054>057-064-065-040000-
CENTRAL INDIANA

CITY           SKY/WX    TMP DP  RH WIND       PRES   REMARKS
CP ATTERBURY + MOSUNNY   59  46  63 CALM      29.89F
COLUMBUS       CLOUDY    59  50  72 CALM      29.89F
FISHERS *+     SUNNY     59  46  63 NW5       29.87F
FRANKFORT +      N/A     61  27  27 CALM      29.88S
GREENWOOD *+   PTSUNNY   59  46  63 NE3       29.88F
INDIANAPOLIS   MOSUNNY   62  41  46 VRB3      29.86F
-EAGLE CREEK   SUNNY     62  43  49 CALM      29.86F
KOKOMO *+      SUNNY     63  43  48 W6        29.85S
MARION +       MOSUNNY   60  42  52 W9        29.86F
SHELBYVILLE    PTSUNNY   60  45  57 W6        29.87F
ZIONSVILLE +   SUNNY     60  44  54 W5        29.87F

$$

INZ033-034-041-042-049-050-058-059-040000-
EAST CENTRAL INDIANA

CITY           SKY/WX    TMP DP  RH WIND       PRES   REMARKS
MUNCIE         MOSUNNY   61  44  53 W9        29.86F

$$

INZ060-061-067>069-081>083-085>088-040000-
SOUTHWEST INDIANA

CITY           SKY/WX    TMP DP  RH WIND       PRES   REMARKS
EVANSVILLE     CLOUDY    61  43  51 W7        29.92F
HUNTINGBURG *+ CLOUDY    61  46  59 W8        29.91F
WASHINGTON +   CLOUDY    62  43  49 CALM      29.89F

$$

INZ062-063-066-070>080-084-089>092-040000-
SOUTH CENTRAL AND SOUTHEAST INDIANA

CITY           SKY/WX    TMP DP  RH WIND       PRES   REMARKS
BEDFORD +      CLOUDY    59  52  77 CALM      29.89F
BLOOMINGTON    PTSUNNY   61  42  49 CALM      29.88F
MADISON *+     CLOUDY    55  46  71 W5        29.91F
NORTH VERNON + CLOUDY    57  54  88 CALM      29.89
SEYMOUR +      CLOUDY    59  48  67 CALM      29.89F

$$





USA.gov is the U.S. government's official web portal to all federal, state and local government web resources and services.